[[{"header":{"parameterUnit":"m.s-1","parameterCategory":1,"la1":30.2991,"la2":30.254,"lo1":-89.0895,"lo2":-89.0444,"dy":0.0017,"dx":0.0017,"nx":28,"ny":28,"refTime":"2025-09-14T03:00:00:Z","depth":0,"parameterNumber":2,"parameterNumberName":"U-component_of_WINDS"},"data":[0,0,0,0,0,0,0,0,0,0,0,0,0,0,0,0,0,0,0,0,0,0,0,0,0,0,0,0,0,0,0,0,0,0,0,0,0,0,0,0,0,0,0,0,0,0,0,0,0,0,0,0,0,0,0,0,0,0,2.0442,2.0443,0,2.0534,2.0535,2.0536,2.0548,2.0547,2.0546,2.0545,2.0638,2.0641,2.0644,0,0,0,0,0,0,0,0,0,0,0,0,0,2.0273,2.0276,2.0441,2.0443,2.0444,2.0534,2.0535,2.0536,2.0548,2.0547,2.0546,2.0545,2.0636,2.064,2.0644,0,0,0,0,0,0,0,0,0,0,0,0,0,2.0353,2.0277,2.0441,2.0461,2.0463,2.0533,2.0535,2.0536,2.0548,2.0547,2.0546,2.0545,2.0635,2.064,2.0645,2.0701,0,0,2.066,2.0662,0,0,0,0,0,0,0,0,2.0349,2.036,2.0457,2.046,2.0463,2.0528,2.0509,2.0591,2.0549,2.0516,2.0545,2.0544,2.0602,2.061,2.063,2.0705,2.0709,2.066,2.0663,2.0665,2.0667,0,0,0,0,0,0,0,2.0343,2.0356,2.0478,2.0458,2.0462,2.0464,2.0474,2.0525,2.0565,2.0519,2.052,2.0531,2.0603,2.0625,2.0632,2.0711,2.066,2.0664,2.0667,2.0669,2.0834,2.0836,0,0,0,0,0,0,2.0334,2.0351,2.0475,2.0481,2.0401,2.0468,2.0479,2.0508,2.0565,2.0572,2.0532,2.0531,2.0617,2.0626,2.0635,2.0703,2.0665,2.067,2.0673,2.0833,2.0835,2.0836,0,0,0,0,0,0,2.0331,2.0345,2.0471,2.0416,2.0432,2.0472,2.0505,2.0511,2.0532,2.0574,2.0581,2.0547,2.0616,2.0628,2.0684,2.0706,2.0672,2.0676,2.0831,2.0834,2.0836,2.084,0,0,0,0,0,0,2.0326,2.0344,2.0367,2.0417,2.0435,2.052,2.0506,2.0514,2.0541,2.0541,2.059,2.0597,2.0616,2.0677,2.0689,2.0712,2.068,2.0829,2.0832,2.0835,2.0838,2.0842,2.0845,0,0,0,0,0,2.032,2.0364,2.0368,2.0383,2.0465,2.0521,2.0532,2.0554,2.0543,2.0565,2.0592,2.0595,2.0702,2.0682,2.0696,2.0721,2.0828,2.0832,2.0835,2.0836,2.0841,2.0845,0,0,0,0,0,0,2.0316,2.0371,2.0376,2.0438,2.0475,2.0523,2.0552,2.0558,2.0598,2.0596,2.0621,2.0632,2.0687,2.071,2.0687,2.0778,2.0764,2.077,2.076,2.0765,2.0769,2.0762,2.0684,0,0,0,0,0,2.0322,2.0364,2.041,2.046,2.0479,2.0512,2.0538,2.0551,2.059,2.0605,2.0636,2.0673,2.0715,2.0741,2.0782,2.0842,2.0851,2.0866,2.0869,2.0872,2.0877,2.0907,2.0914,2.0847,2.0847,2.0847,0,0,2.0335,2.0371,2.0396,2.046,2.0491,2.0532,2.0525,2.057,2.0601,2.0612,2.0666,2.069,2.0733,2.079,2.0817,2.0811,2.0897,2.0876,2.0878,2.0881,2.0911,2.0918,2.0923,2.0849,2.0849,2.0849,0,0,2.0381,2.0413,2.0457,2.0487,2.0533,2.0555,2.0565,2.0613,2.0629,2.0684,2.0693,2.0729,2.0801,2.083,2.0854,2.0909,2.0913,2.0922,2.0941,2.097,2.0975,2.098,2.0998,2.1004,2.0926,2.0926,2.0926,0,2.0391,2.0456,2.0479,2.0523,2.055,2.0563,2.0607,2.0635,2.0691,2.0709,2.0702,2.0791,2.0821,2.0884,2.0897,2.0917,2.0928,2.0916,2.0973,2.0978,2.0983,2.1,2.1006,2.0927,2.0927,2.0927,2.0927,0,2.0465,2.0509,2.054,2.0594,2.0624,2.0668,2.0697,2.0725,2.0736,2.0757,2.0812,2.0848,2.0895,2.0912,2.0923,2.0976,2.0971,2.0968,2.0955,2.0989,2.1005,2.1012,2.0928,2.0928,2.0928,2.0927,0,0,2.0511,2.0576,2.0587,2.0611,2.0661,2.0695,2.0739,2.0785,2.0808,2.0846,2.0882,2.0942,2.0939,2.0967,2.0981,2.1007,2.1046,2.1002,2.1003,2.1007,2.1104,2.1104,2.1111,2.1049,2.1051,2.1052,2.11,0,2.056,2.0639,2.0661,2.0727,2.0767,2.0779,2.0816,2.085,2.0872,2.0908,2.0931,2.0972,2.0967,2.0983,2.101,2.1035,2.1065,2.1033,2.1081,2.1083,2.1068,2.112,2.1121,2.1165,2.1106,2.1108,2.1108,0,2.0629,2.0668,2.0738,2.0782,2.0799,2.0833,2.0876,2.0911,2.095,2.0963,2.0993,2.1005,2.1049,2.1034,2.1094,2.1071,2.1093,2.1108,2.111,2.1114,2.1096,2.1124,2.118,2.1185,2.1119,2.1118,2.1117,0,2.0653,2.0723,2.0773,2.0794,2.0847,2.0869,2.0892,2.093,2.0956,2.0993,2.101,2.1052,2.1075,2.1107,2.1129,2.1116,2.1186,2.1174,2.1197,2.1197,2.121,2.1209,2.1268,2.1227,2.1227,2.1227,2.1227,0,2.0705,2.0747,2.0784,2.0815,2.0862,2.0886,2.0931,2.0954,2.0987,2.1021,2.1034,2.1066,2.1094,2.1129,2.1147,2.1193,2.1203,2.1214,2.1218,2.1212,2.1211,2.1225,2.1222,2.1228,2.1228,2.1228,2.1227,0,2.0739,2.0766,2.0821,2.0866,2.0879,2.0911,2.0949,2.0978,2.1,2.1043,2.1055,2.1088,2.113,2.1155,2.1209,2.122,2.127,2.1274,2.1257,2.1259,2.128,2.1277,2.135,2.1359,2.1313,2.1313,2.1314,0,2.077,2.0802,2.085,2.0874,2.0897,2.0937,2.0963,2.0987,2.1014,2.1059,2.1083,2.1126,2.1161,2.1227,2.1255,2.1296,2.1299,2.1322,2.1305,2.1298,2.1297,2.1294,2.1297,2.1324,2.1324,2.1325,2.1325,0,2.0821,2.0832,2.087,2.0912,2.0943,2.0978,2.1012,2.103,2.106,2.1089,2.1132,2.116,2.1214,2.1255,2.1298,2.132,2.1327,2.133,2.1337,2.1331,2.1319,2.1324,2.1263,2.1328,2.1328,2.1328,2.1327,2.1327,2.0853,2.0881,2.0919,2.096,2.0988,2.102,2.1049,2.1074,2.111,2.1156,2.1168,2.1213,2.1249,2.1306,2.133,2.1364,2.136,2.1371,2.1374,2.1376,2.1375,2.1315,2.1372,2.1372,2.1372,2.1372,2.1372,0,2.0903,2.0928,2.0965,2.1012,2.1044,2.1049,2.1086,2.1112,2.1151,2.1184,2.1219,2.1267,2.1307,2.1338,2.1379,2.14,2.1404,2.141,2.1408,2.1413,2.1377,2.1366,2.1406,2.1406,2.1406,2.1406,2.1406,2.1406,2.0933,2.098,2.0996,2.1057,2.1081,2.1125,2.1146,2.1174,2.12,2.1254,2.1287,2.1308,2.1339,2.1382,2.1419,2.1427,2.144,2.1445,2.1453,2.1419,2.1415,2.1412,2.1401,2.1448,2.1448,2.1486,2.1486,2.1487]},{"header":{"parameterUnit":"m.s-1","parameterCategory":1,"la1":30.2991,"la2":30.254,"lo1":-89.0895,"lo2":-89.0444,"dy":0.0017,"dx":0.0017,"nx":28,"ny":28,"refTime":"2025-09-14T03:00:00:Z","depth":0,"parameterNumber":3,"parameterNumberName":"V-component_of_WINDS"},"data":[0,0,0,0,0,0,0,0,0,0,0,0,0,0,0,0,0,0,0,0,0,0,0,0,0,0,0,0,0,0,0,0,0,0,0,0,0,0,0,0,0,0,0,0,0,0,0,0,0,0,0,0,0,0,0,0,0,0,1.2692,1.2692,0,1.2649,1.2648,1.2648,1.2595,1.2595,1.2594,1.2593,1.2548,1.2548,1.2547,0,0,0,0,0,0,0,0,0,0,0,0,0,1.2729,1.2728,1.2692,1.2692,1.2691,1.2649,1.2648,1.2648,1.2595,1.2595,1.2594,1.2593,1.2548,1.2548,1.2547,0,0,0,0,0,0,0,0,0,0,0,0,0,1.2702,1.2728,1.2692,1.266,1.2657,1.2649,1.2648,1.2648,1.2596,1.2594,1.2593,1.2592,1.2549,1.2548,1.2547,1.2568,0,0,1.2545,1.2545,0,0,0,0,0,0,0,0,1.2703,1.27,1.2665,1.2662,1.2659,1.2626,1.2645,1.2621,1.2596,1.2619,1.2593,1.2592,1.2575,1.2572,1.2567,1.2566,1.2564,1.2545,1.2545,1.2545,1.2544,0,0,0,0,0,0,0,1.2705,1.2702,1.2675,1.2665,1.2661,1.2647,1.2642,1.264,1.2604,1.2617,1.2613,1.2608,1.2573,1.2568,1.2565,1.2563,1.2545,1.2545,1.2544,1.2544,1.2574,1.2575,0,0,0,0,0,0,1.2712,1.2704,1.2676,1.2674,1.2678,1.2648,1.2642,1.2638,1.2604,1.2598,1.261,1.2606,1.2569,1.2566,1.2564,1.2584,1.2545,1.2544,1.2544,1.2573,1.2574,1.2575,0,0,0,0,0,0,1.2713,1.271,1.2678,1.2688,1.2683,1.2648,1.2644,1.2638,1.2632,1.2599,1.2592,1.2611,1.2568,1.2565,1.2567,1.2581,1.2544,1.2543,1.2571,1.2573,1.2575,1.2625,0,0,0,0,0,0,1.2714,1.2711,1.2719,1.2688,1.2682,1.2683,1.2645,1.2638,1.2631,1.2626,1.2598,1.2592,1.2567,1.2568,1.2566,1.258,1.2543,1.257,1.2572,1.2574,1.2622,1.2628,1.2634,0,0,0,0,0,1.2716,1.2735,1.272,1.2716,1.2692,1.2684,1.268,1.2651,1.2633,1.264,1.2618,1.2593,1.258,1.2569,1.2566,1.258,1.2569,1.2572,1.2574,1.2619,1.2627,1.2634,0,0,0,0,0,0,1.2769,1.2731,1.2713,1.2723,1.2707,1.2675,1.2683,1.266,1.2649,1.2645,1.2609,1.2603,1.2609,1.2595,1.2582,1.2597,1.2571,1.2573,1.2606,1.2613,1.2619,1.2622,1.2542,0,0,0,0,0,1.2782,1.2779,1.2745,1.2757,1.275,1.2718,1.2714,1.2692,1.2674,1.2667,1.2646,1.2629,1.262,1.2616,1.2607,1.262,1.2612,1.2628,1.2634,1.2639,1.2641,1.2644,1.2651,1.2584,1.2584,1.2584,0,0,1.2808,1.2787,1.2787,1.2767,1.2752,1.2749,1.2713,1.2712,1.2709,1.2667,1.2667,1.2651,1.2629,1.2636,1.2638,1.2624,1.2657,1.2642,1.2646,1.2646,1.2648,1.2654,1.266,1.2586,1.2586,1.2585,0,0,1.2854,1.2839,1.2846,1.2832,1.2809,1.2787,1.2789,1.276,1.2747,1.2747,1.2715,1.2711,1.2698,1.2683,1.2674,1.2713,1.2689,1.2711,1.2742,1.2746,1.2751,1.2756,1.2768,1.2773,1.2714,1.2714,1.2714,0,1.289,1.2885,1.2853,1.2853,1.2845,1.2806,1.2813,1.28,1.2776,1.277,1.2755,1.2737,1.272,1.2722,1.2731,1.2726,1.2726,1.2714,1.2753,1.2757,1.2761,1.2772,1.2777,1.2717,1.2716,1.2716,1.2716,0,1.2929,1.2925,1.2934,1.2911,1.2903,1.2907,1.2875,1.2871,1.285,1.283,1.2828,1.2806,1.2791,1.279,1.277,1.2789,1.278,1.276,1.2733,1.2771,1.278,1.2785,1.2721,1.272,1.2719,1.2718,0,0,1.3008,1.2966,1.297,1.2958,1.293,1.2926,1.2927,1.2912,1.2908,1.2893,1.2892,1.2881,1.2861,1.2851,1.2828,1.2832,1.2862,1.281,1.2809,1.2819,1.2879,1.2894,1.2899,1.2845,1.2846,1.2847,1.288,0,1.3048,1.3048,1.3019,1.3026,1.3022,1.2984,1.2985,1.2967,1.2947,1.294,1.2918,1.2911,1.2886,1.2879,1.2881,1.2858,1.2873,1.2855,1.2843,1.2843,1.2849,1.2905,1.2921,1.2954,1.2884,1.2884,1.2885,0,1.3096,1.3082,1.3089,1.3058,1.3055,1.3057,1.3039,1.3033,1.3011,1.2997,1.2985,1.2959,1.2956,1.2931,1.2926,1.2915,1.2908,1.2895,1.2896,1.2893,1.2866,1.2902,1.2963,1.2968,1.2891,1.289,1.289,0,1.3151,1.3134,1.3136,1.3127,1.3092,1.3093,1.3079,1.3056,1.3048,1.3032,1.3027,1.3012,1.3003,1.2991,1.2961,1.2946,1.2959,1.2932,1.2946,1.2946,1.295,1.295,1.301,1.2947,1.2947,1.2947,1.2947,0,1.3198,1.3204,1.316,1.3161,1.3165,1.3131,1.3136,1.3117,1.3097,1.3093,1.306,1.3056,1.3017,1.3009,1.2986,1.2984,1.2981,1.2968,1.2961,1.297,1.2972,1.2965,1.2962,1.2948,1.2948,1.2948,1.2948,0,1.3261,1.3232,1.3231,1.3197,1.3189,1.3193,1.3164,1.3163,1.3141,1.3136,1.3133,1.3098,1.3086,1.3055,1.3036,1.302,1.3024,1.3013,1.3032,1.3028,1.3043,1.3041,1.3099,1.3105,1.304,1.3041,1.3041,0,1.3293,1.3296,1.3263,1.3257,1.3244,1.3236,1.3228,1.3194,1.3186,1.316,1.3162,1.3147,1.3134,1.3117,1.309,1.3074,1.3061,1.3083,1.3059,1.3067,1.306,1.306,1.3059,1.3088,1.3089,1.3089,1.309,0,1.3352,1.3337,1.3326,1.331,1.3301,1.3286,1.327,1.3267,1.3229,1.3222,1.3209,1.3199,1.3178,1.3164,1.3144,1.3127,1.3102,1.3098,1.31,1.3109,1.3119,1.3112,1.3045,1.3096,1.3096,1.3095,1.3095,1.3095,1.3399,1.34,1.3376,1.3364,1.3348,1.3333,1.333,1.3307,1.3296,1.3277,1.3257,1.3246,1.3222,1.3192,1.3178,1.3168,1.3155,1.3158,1.3159,1.316,1.3164,1.3121,1.3164,1.3164,1.3164,1.3164,1.3164,0,1.3456,1.3438,1.3428,1.3406,1.3396,1.3373,1.3353,1.3347,1.3338,1.3318,1.3305,1.329,1.3275,1.3246,1.3228,1.3226,1.3214,1.3222,1.3222,1.3218,1.3177,1.3176,1.3232,1.3232,1.3232,1.3232,1.3232,1.3232,1.3484,1.3483,1.3465,1.3454,1.3437,1.3426,1.3416,1.3402,1.3385,1.337,1.3357,1.3339,1.3314,1.3294,1.3279,1.3271,1.3265,1.3278,1.3265,1.3228,1.3221,1.3215,1.3214,1.3277,1.3277,1.3307,1.3307,1.3307]}]]